Location: ActonStarParty
(42.4766°N, 71.4538°W)
Time: 02:09:13
(UTC-04:00)

Cosmos 1151 Rocket - Pass Details

Date: 19 April 2018
Orbit: 594 x 615 km, 82.5° (Epoch: 21 May)

Event Time Altitude Azimuth Distance (km) Brightness Sun altitude
Exits shadow 21:13:25 16° 184° (S) 1,567 4.8 -17.6°
Maximum altitude 21:16:47 83° 98° (E) 605 2.9 -18.1°
Drops below altitude 10° 21:21:04 10° 10° (N) 1,942 5.9 -18.7°
Sets 21:23:18 0° 9° (N) 2,852 6.8 -19.1°
